Regional Weather Roundup
Issued by NWS

Home | Current Version | Previous Version | Graphics & Text | Print | Product List | Glossary On
Versions: 1 2 3 4 5 6 7 8 9 10 11 12 13 14 15 16 17 18 19 20 21 22 23 24 25 26 27 28 29 30 31 32 33 34 35 36 37 38 39 40 41 42 43 44 45 46 47 48
000
ASUS45 KBOU 202107
RWRCO

WEATHER ROUNDUP FOR COLORADO
NATIONAL WEATHER SERVICE DENVER/BOULDER CO
300 PM MDT SAT SEP 20 2014

NOTE: "FAIR" INDICATES FEW OR NO CLOUDS BELOW 12000 FEET WITH NO
SIGNIFICANT WEATHER AND/OR OBSTRUCTIONS TO VISIBILITY.

COZ001>005-013-030-031-202200-
...NORTHWEST COLORADO...

CITY           SKY/WX    TMP DP  RH WIND       PRES   REMARKS
CRAIG          SUNNY     81  31  16 N6        30.26F
HAYDEN         SUNNY     77  28  16 NW3       30.28F
MEEKER         NOT AVBL
MOUNT WERNER   NOT AVBL
STEAMBOAT SPGS SUNNY     76  31  19 S3        30.29F
WALDEN         SUNNY     72  27  18 N5        30.38F
$$

COZ006>008-011-202200-
...WEST CENTRAL VALLEYS...

CITY           SKY/WX    TMP DP  RH WIND       PRES   REMARKS
GRAND JUNCTION SUNNY     88  43  20 W7        30.08F
MONTROSE       SUNNY     85  45  24 N8        30.15F
EAGLE          MOSUNNY   82  36  18 CALM      30.24F
RIFLE          SUNNY     85  38  18 VRB5      30.14F
DELTA          SUNNY     91  38  16 W5        30.09F
NUCLA          SUNNY     88  37  16 NW5       30.17F
$$

COZ017>023-064>068-202200-
...SOUTHWEST COLORADO...

CITY           SKY/WX    TMP DP  RH WIND       PRES   REMARKS
DURANGO        SUNNY     81  36  19 W5        30.18F
CORTEZ         SUNNY     87  44  22 SW8       30.14F
PAGOSA SPRINGS SUNNY     82  25  12 S12G17    30.28S
TELLURIDE      NOT AVBL
WOLF CREEK PAS PTSUNNY   55  32  41 SW5       30.62F
$$

COZ009-010-012-014-032>034-037-058>063-202200-
...CENTRAL COLORADO...

CITY           SKY/WX    TMP DP  RH WIND       PRES   REMARKS
ASPEN          MOSUNNY   79  37  22 N13G20    30.30F
BUENA VISTA    MOSUNNY   76  30  18 CALM      30.31F
COPPER MTN     PTSUNNY   64  32  29 NW5       30.66F
BERTHOUD PASS  FAIR      54  52  94 NE5       30.72F
COTTONWOOD PAS PTSUNNY   64  36  34 S7        30.48F
GUNNISON       SUNNY     79  34  19 S7        30.30F
KREMMLING      SUNNY     79  28  15 S6        30.32F
LEADVILLE      MOSUNNY   68  30  24 W9        30.46F
MONARCH PASS   PTSUNNY   55  34  44 E15G23    30.74F
SALIDA         MOSUNNY   80  34  18 SE10      30.35F
SUNLIGHT       SUNNY     64  34  32 NW3       30.58F
WILKERSON PASS NOT AVBL
$$

COZ069>075-202200-
...SAN LUIS VALLEY/SANGRE DE CRISTO MOUNTAINS...

CITY           SKY/WX    TMP DP  RH WIND       PRES   REMARKS
ALAMOSA        MOSUNNY   82  34  17 VRB7      30.27F
LA VETA PASS   MOSUNNY   66  37  34 NE10G24   30.53F
SAGUACHE       NOT AVBL
$$

COZ035-036-038>040-202200-
...NORTHERN COLORADO FRONT RANGE...

CITY           SKY/WX    TMP DP  RH WIND       PRES   REMARKS
DENVER INTL AP MOSUNNY   80  47  31 NE8       30.24S
DMNS CITY PARK   N/A     80  46  30 N3G13     30.23S
AURORA         MOSUNNY   78  46  32 NE10      30.25F
FRONT RANGE AP NOT AVBL
ERIE MUNI ARPT SUNNY     80  43  27 SE6       30.22F
BOULDER MUN AP SUNNY     77  46  33 CALM      30.23F
CENTENNIAL     MOSUNNY   78  48  34 NE9       30.25F
BROOMFIELD     MOSUNNY   79  46  31 NE6       30.26S
FORT COLLINS   SUNNY     81  48  32 E8        30.22S
LONGMONT       SUNNY     82  46  28 CALM      30.24S
$$

COZ041-046-047-076>085-087-088-202200-
...PIKES PEAK/PALMER DIVIDE AND SOUTHERN FOOTHILLS...

CITY           SKY/WX    TMP DP  RH WIND       PRES   REMARKS
COLO. SPRINGS  PTSUNNY   82  45  27 NE8       30.26F
A. F. ACADEMY  MOSUNNY   78  43  28 VRB2      30.27F
ELLICOTT       NOT AVBL
FALCON         PTSUNNY   77  43  29 E9        30.32F
FORT CARSON    MOSUNNY   84  46  27 NE7       30.22F
LIMON          SUNNY     79  48  33 NE14      30.23F
MONUMENT HILL  SUNNY     73  43  33 N8        30.32F
TRINIDAD       SUNNY     83  45  26 VRB7      30.22S
$$

COZ042>045-048>051-090-091-202200-
...NORTHEAST COLORADO...

CITY           SKY/WX    TMP DP  RH WIND       PRES   REMARKS
GREELEY ARPT   SUNNY     81  46  30 SE9       30.21F
AKRON          SUNNY     79  49  34 NE13      30.20F
BURLINGTON     SUNNY     82  49  31 E10G22    30.16S
WRAY           SUNNY     85  46  25 N12G17    30.14S
STERLING       SUNNY     84  52  32 E7        30.17S
HOLYOKE        SUNNY     84  46  26 CALM      30.15S
FORT MORGAN    SUNNY     79  48  33 E5        30.21S
$$

COZ086-089-092>099-202200-
...SOUTHEAST COLORADO...

CITY           SKY/WX    TMP DP  RH WIND       PRES   REMARKS
PUEBLO         SUNNY     89  45  21 SE13G20   30.13F
LA JUNTA       SUNNY     90  51  26 NE15G23   30.12F
LAMAR          SUNNY     91  54  28 NE15G24   30.06S
SPRINGFIELD      N/A     88  50  27 NE15G21   30.10F
$$



USA.gov is the U.S. government's official web portal to all federal, state and local government web resources and services.